"2009-04-21 00:00:00",818246,0.465,104.9,20.23,0.298,14.89,107.1056,17.47,18.49,22.42,0,110.9,13.19,18.28,66.9
"2009-04-21 00:00:30",818247,0.584,87.3,11.88,0.199,15.01,107.1002,17.45,18.49,22.41,0,110.9,13.19,18.27,49.3
"2009-04-21 00:01:00",818248,0.589,128.2,10.68,0.104,14.79,107.1025,17.46,18.48,22.41,0,110.9,13.19,18.27,90.2
"2009-04-21 00:01:30",818249,0.408,93.7,25.15,0.288,14.84,107.1073,17.47,18.47,22.42,0,110.9,13.19,18.28,55.7
"2009-04-21 00:02:00",818250,0.013,2.982,53.97,0.092,14.87,107.1094,17.48,18.46,22.47,0,110.9,13.19,18.29,325.0
"2009-04-21 00:02:30",818251,0.081,249,56.51,0.154,15,107.1083,17.47,18.46,22.55,0,110.9,13.19,18.29,211.0
"2009-04-21 00:03:00",818252,-0.051,299.7,82.3,0.083,15.07,107.1006,17.45,18.46,22.56,0,110.9,13.19,18.27,261.7
"2009-04-21 00:03:30",818253,0.087,194.2,25.03,0.101,15.17,107.0831,17.41,18.45,22.53,0,110.9,13.19,18.22,156.2
"2009-04-21 00:04:00",818254,0.244,210.2,14.4,0.138,14.78,107.0685,17.37,18.43,22.54,0,110.9,13.19,18.18,172.2
"2009-04-21 00:04:30",818255,0.463,171.7,22.56,0.269,14.81,107.0489,17.32,18.4,22.66,0,110.9,13.19,18.13,133.7
"2009-04-21 00:05:00",818256,0.942,136.8,7.899,0.1,14.91,107.0391,17.3,18.36,22.79,0,110.9,13.19,18.11,98.8
"2009-04-21 00:05:30",818257,0.869,170.3,24.8,0.187,14.97,107.0124,17.23,18.33,22.92,0,110.9,13.19,18.04,132.3
"2009-04-21 00:06:00",818258,0.077,226.6,22.78,0.113,15.01,106.9803,17.14,18.28,23.02,0,110.9,13.19,17.96,188.6
"2009-04-21 00:06:30",818259,0.11,158.3,16.34,0.066,14.97,106.9612,17.1,18.23,23.07,0,110.9,13.19,17.91,120.3
"2009-04-21 00:07:00",818260,0.052,159.5,17.03,0.112,15.09,106.9477,17.06,18.19,23.17,0,110.9,13.19,17.87,121.5
"2009-04-21 00:07:30",818261,0.052,122.9,15.08,0.086,15.07,106.928,17.01,18.14,23.24,0,110.9,13.19,17.82,84.9
"2009-04-21 00:08:00",818262,-0.051,141.3,22.35,0.038,15.08,106.914,16.97,18.1,23.3,0,110.9,13.19,17.79,103.3
"2009-04-21 00:08:30",818263,0.077,236.1,36.88,0.162,15.16,106.914,16.97,18.06,23.35,0,110.9,13.19,17.79,198.1
"2009-04-21 00:09:00",818264,0.344,215.4,10.67,0.093,15.12,106.914,16.97,18.05,23.39,0,110.9,13.19,17.79,177.4
"2009-04-21 00:09:30",818265,0.158,220.2,18.15,0.133,15.19,106.9134,16.97,18.02,23.43,0,110.9,13.19,17.78,182.2
"2009-04-21 00:10:00",818266,0.737,214.5,4.821,0.251,15.07,106.9112,16.97,18.01,23.45,0,110.9,13.19,17.78,176.5
"2009-04-21 00:10:30",818267,1.158,215,7.978,0.167,15.14,106.9025,16.95,18,23.38,0,110.9,13.19,17.76,177.0
"2009-04-21 00:11:00",818268,1.315,205.5,3.408,0.165,15.24,106.8879,16.91,17.99,23.32,0,110.9,13.19,17.72,167.5
"2009-04-21 00:11:30",818269,1.178,203.9,9.7,0.121,15.27,106.8805,16.89,17.96,23.35,0,110.9,13.19,17.70,165.9
"2009-04-21 00:12:00",818270,1.139,198,6.98,0.091,15.25,106.8803,16.89,17.96,23.33,0,110.9,13.2,17.70,160.0
"2009-04-21 00:12:30",818271,1.135,214.4,8.28,0.077,15.26,106.8732,16.87,17.95,23.32,0,110.9,13.2,17.68,176.4
"2009-04-21 00:13:00",818272,1.463,223.5,3.108,0.189,15.27,106.8533,16.82,17.94,23.3,0,110.8,13.2,17.63,185.5
"2009-04-21 00:13:30",818273,1.465,226,4.14,0.172,15.39,106.8474,16.8,17.91,23.31,0,110.8,13.2,17.61,188.0
"2009-04-21 00:14:00",818274,1.285,226.4,3.121,0.078,15.18,106.8498,16.81,17.91,23.33,0,110.8,13.2,17.62,188.4
"2009-04-21 00:14:30",818275,1.127,218.7,2.5,0.081,15.27,106.8472,16.8,17.9,23.38,0,110.8,13.2,17.61,180.7
"2009-04-21 00:15:00",818276,1.128,213.8,5.574,0.126,15.26,106.8317,16.76,17.87,23.4,0,110.8,13.2,17.57,175.8
"2009-04-21 00:15:30",818277,1.258,200.1,6.194,0.099,15.5,106.8374,16.78,17.84,23.42,0,110.8,13.2,17.59,162.1
"2009-04-21 00:16:00",818278,1.449,195.6,16.87,0.308,15.46,106.837,16.78,17.82,23.47,0,110.8,13.2,17.59,157.6
"2009-04-21 00:16:30",818279,1.241,237,7.074,0.348,15.36,106.8153,16.72,17.81,23.54,0,110.8,13.2,17.53,199.0
"2009-04-21 00:17:00",818280,0.598,269.3,11.74,0.108,15.37,106.8124,16.71,17.8,23.52,0,110.8,13.2,17.52,231.3
"2009-04-21 00:17:30",818281,0.769,272.1,10.1,0.155,15.38,106.8128,16.72,17.78,23.49,0,110.8,13.21,17.53,234.1
"2009-04-21 00:18:00",818282,1.318,255.9,10.48,0.181,15.24,106.7848,16.64,17.75,23.52,0,110.8,13.21,17.45,217.9
"2009-04-21 00:18:30",818283,1.437,235.7,8.59,0.132,15.08,106.7814,16.63,17.72,23.49,0,110.8,13.21,17.45,197.7
"2009-04-21 00:19:00",818284,1.153,223.6,6.267,0.302,15.24,106.7603,16.58,17.68,23.48,0,110.8,13.21,17.39,185.6
"2009-04-21 00:19:30",818285,0.964,216.9,12.23,0.181,15.22,106.7476,16.55,17.65,23.59,0,110.8,13.21,17.36,178.9
"2009-04-21 00:20:00",818286,1.29,206.4,2.127,0.144,15.36,106.7476,16.55,17.6,23.82,0,110.8,13.21,17.36,168.4
"2009-04-21 00:20:30",818287,1.371,203.9,4.399,0.054,15.4,106.7468,16.55,17.6,23.99,0,110.8,13.21,17.36,165.9
"2009-04-21 00:21:00",818288,1.405,189.2,2.846,0.238,15.44,106.7378,16.52,17.58,24.04,0,110.8,13.21,17.33,151.2
"2009-04-21 00:21:30",818289,1.811,176.5,11.42,0.225,15.62,106.7215,16.48,17.56,24.06,0,110.8,13.21,17.29,138.5
"2009-04-21 00:22:00",818290,1.04,193.6,18.41,0.582,15.61,106.7125,16.46,17.54,23.93,0,110.8,13.21,17.27,155.6
"2009-04-21 00:22:30",818291,1.883,184.3,7.711,0.362,15.62,106.6872,16.39,17.53,23.82,0,110.8,13.21,17.20,146.3
"2009-04-21 00:23:00",818292,2.463,210.4,21.06,0.562,15.64,106.6802,16.38,17.48,23.74,0,110.8,13.21,17.18,172.4
"2009-04-21 00:23:30",818293,1.846,205.8,14.52,0.584,15.62,106.6751,16.36,17.46,23.82,0,110.8,13.21,17.17,167.8
"2009-04-21 00:24:00",818294,1.906,209.7,17.7,0.383,15.53,106.6467,16.29,17.42,24,0,110.8,13.21,17.10,171.7
"2009-04-21 00:24:30",818295,1.732,207.8,18.28,0.489,15.3,106.647,16.29,17.37,24.17,0,110.8,13.21,17.10,169.8
"2009-04-21 00:25:00",818296,1.236,188.1,6.379,0.219,15.05,106.6369,16.26,17.34,24.26,0,110.8,13.21,17.07,150.1
"2009-04-21 00:25:30",818297,1.469,203.9,3.206,0.086,14.85,106.621,16.22,17.32,24.56,0,110.8,13.21,17.03,165.9
"2009-04-21 00:26:00",818298,1.833,207.4,2.747,0.115,14.72,106.6238,16.23,17.31,24.77,0,110.8,13.21,17.04,169.4
"2009-04-21 00:26:30",818299,1.741,202.3,8.33,0.113,14.64,106.6244,16.23,17.29,24.71,0,110.8,13.21,17.04,164.3
"2009-04-21 00:27:00",818300,1.5,227.3,14.6,0.223,14.7,106.6241,16.23,17.28,24.68,0,110.8,13.21,17.04,189.3
"2009-04-21 00:27:30",818301,1.908,231.1,7.18,0.265,14.75,106.6259,16.24,17.27,24.5,0,110.8,13.21,17.05,193.1
"2009-04-21 00:28:00",818302,2.064,224.5,3.548,0.121,14.93,106.6304,16.25,17.28,24.39,0,110.8,13.21,17.06,186.5
"2009-04-21 00:28:30",818303,1.791,229.6,3.915,0.119,15.17,106.64,16.27,17.27,24.37,0,110.7,13.22,17.08,191.6
"2009-04-21 00:29:00",818304,2.416,232.6,5.019,0.253,15.28,106.6442,16.28,17.29,24.27,0,110.8,13.22,17.09,194.6
"2009-04-21 00:29:30",818305,2.308,238.8,7.791,0.271,15.39,106.6474,16.29,17.29,24.27,0,110.8,13.22,17.10,200.8
"2009-04-21 00:30:00",818306,2.01,245.4,5.896,0.146,15.48,106.6484,16.29,17.3,24.24,0,110.8,13.22,17.10,207.4
"2009-04-21 00:30:30",818307,2.142,236.2,2.664,0.079,15.46,106.6489,16.3,17.29,24.3,0,110.8,13.22,17.10,198.2
"2009-04-21 00:31:00",818308,2.118,230.2,3.923,0.216,15.57,106.6487,16.29,17.31,24.44,0,110.8,13.22,17.10,192.2
"2009-04-21 00:31:30",818309,2.398,217.1,6.258,0.276,15.58,106.6489,16.3,17.3,24.55,0,110.7,13.22,17.10,179.1
"2009-04-21 00:32:00",818310,2.127,211.4,2.612,0.291,15.6,106.6487,16.29,17.32,24.45,0,110.7,13.22,17.10,173.4
"2009-04-21 00:32:30",818311,2.017,199.9,4.451,0.267,15.66,106.6487,16.29,17.33,24.54,0,110.7,13.22,17.10,161.9
"2009-04-21 00:33:00",818312,2.113,195.6,2.624,0.141,15.67,106.6487,16.29,17.31,24.61,0,110.7,13.22,17.10,157.6
"2009-04-21 00:33:30",818313,2.342,186,5.27,0.14,15.62,106.6487,16.29,17.32,24.68,0,110.7,13.22,17.10,148.0
"2009-04-21 00:34:00",818314,1.982,187.3,3.691,0.202,15.66,106.6487,16.29,17.3,24.67,0,110.7,13.22,17.10,149.3
"2009-04-21 00:34:30",818315,1.883,192.4,2.986,0.078,15.75,106.6487,16.29,17.31,24.68,0,110.7,13.22,17.10,154.4
"2009-04-21 00:35:00",818316,1.644,191.3,4.456,0.132,15.56,106.6487,16.29,17.31,24.72,0,110.7,13.22,17.10,153.3
"2009-04-21 00:35:30",818317,1.732,203,10.19,0.185,15.67,106.647,16.29,17.3,24.71,0,110.7,13.22,17.10,165.0
"2009-04-21 00:36:00",818318,1.724,194.1,6.589,0.245,15.63,106.6413,16.28,17.3,24.61,0,110.7,13.23,17.08,156.1
"2009-04-21 00:36:30",818319,1.213,218,10.22,0.163,15.49,106.6304,16.25,17.3,24.38,0,110.7,13.23,17.06,180.0
"2009-04-21 00:37:00",818320,1.08,212.1,16.04,0.216,15.38,106.6169,16.21,17.28,24.3,0,110.7,13.23,17.02,174.1
"2009-04-21 00:37:30",818321,0.547,211.7,18.44,0.182,15.17,106.6161,16.21,17.29,24.23,0,110.7,13.23,17.02,173.7
"2009-04-21 00:38:00",818322,0.569,178.1,13.77,0.172,15.12,106.6188,16.22,17.28,24.34,0,110.7,13.23,17.03,140.1
"2009-04-21 00:38:30",818323,0.62,205.4,20.73,0.116,14.98,106.6212,16.22,17.28,24.28,0,110.7,13.23,17.03,167.4
"2009-04-21 00:39:00",818324,0.946,210.1,9.62,0.192,14.87,106.6239,16.23,17.28,24.42,0,110.7,13.23,17.04,172.1
"2009-04-21 00:39:30",818325,0.569,240.1,39.6,0.147,14.92,106.6248,16.23,17.27,24.41,0,110.7,13.23,17.04,202.1
"2009-04-21 00:40:00",818326,0.5,270.5,8.44,0.124,14.72,106.6281,16.24,17.27,24.48,0,110.7,13.23,17.05,232.5
"2009-04-21 00:40:30",818327,0.465,253.4,16.5,0.171,14.74,106.6317,16.25,17.26,24.56,0,110.7,13.22,17.06,215.4
"2009-04-21 00:41:00",818328,0.506,237.4,14.5,0.305,14.68,106.6332,16.26,17.27,24.63,0,110.7,13.22,17.06,199.4
"2009-04-21 00:41:30",818329,0.295,314.8,27.06,0.219,14.68,106.6356,16.26,17.27,24.67,0,110.7,13.22,17.07,276.8
"2009-04-21 00:42:00",818330,0.157,201.6,35.22,0.135,14.56,106.6404,16.27,17.27,24.7,0,110.7,13.22,17.08,163.6
"2009-04-21 00:42:30",818331,0.823,190.8,10.98,0.264,14.46,106.6422,16.28,17.27,24.96,0,110.7,13.22,17.09,152.8
"2009-04-21 00:43:00",818332,1.191,202.4,8.61,0.125,14.4,106.6416,16.28,17.28,24.92,0,110.7,13.22,17.09,164.4
"2009-04-21 00:43:30",818333,1.063,218.2,5.013,0.124,14.38,106.6428,16.28,17.28,24.9,0,110.7,13.22,17.09,180.2
"2009-04-21 00:44:00",818334,0.892,224.7,1.35,0.064,14.49,106.6499,16.3,17.27,24.86,0,110.7,13.22,17.11,186.7
"2009-04-21 00:44:30",818335,0.674,220.2,4.435,0.07,14.37,106.6645,16.34,17.29,24.83,0,110.7,13.22,17.14,182.2
"2009-04-21 00:45:00",818336,0.535,207.8,4.161,0.081,14.34,106.6757,16.36,17.31,24.76,0,110.7,13.22,17.17,169.8
"2009-04-21 00:45:30",818337,0.493,205.3,4.172,0.047,14.33,106.6736,16.36,17.32,24.73,0,110.7,13.23,17.17,167.3
"2009-04-21 00:46:00",818338,0.509,206.3,6.492,0.054,14.32,106.6727,16.36,17.34,24.64,0,110.7,13.23,17.17,168.3
"2009-04-21 00:46:30",818339,0.46,209.1,9.98,0.09,14.19,106.6869,16.39,17.36,24.54,0,110.7,13.23,17.20,171.1
"2009-04-21 00:47:00",818340,0.609,220.8,9.17,0.107,14.28,106.6999,16.43,17.37,24.43,0,110.7,13.23,17.24,182.8
"2009-04-21 00:47:30",818341,0.397,213.6,11.87,0.081,14.24,106.7001,16.43,17.4,24.35,0,110.7,13.23,17.24,175.6
"2009-04-21 00:48:00",818342,0.292,202.9,14.65,0.137,14.31,106.7065,16.44,17.42,24.29,0,110.7,13.23,17.25,164.9
"2009-04-21 00:48:30",818343,0.178,301.3,46.3,0.111,14.4,106.7286,16.5,17.46,24.22,0,110.7,13.23,17.31,263.3
"2009-04-21 00:49:00",818344,0.446,306.2,10.56,0.233,14.54,106.7288,16.5,17.46,23.9,0,110.7,13.23,17.31,268.2
"2009-04-21 00:49:30",818345,0.733,301.4,8.32,0.153,14.4,106.7355,16.52,17.5,23.74,0,110.7,13.23,17.33,263.4
"2009-04-21 00:50:00",818346,0.797,289.7,9.97,0.11,14.43,106.7572,16.57,17.52,23.67,0,110.7,13.23,17.38,251.7
"2009-04-21 00:50:30",818347,0.756,269.2,8.85,0.12,14.47,106.7588,16.58,17.55,23.55,0,110.7,13.23,17.39,231.2
"2009-04-21 00:51:00",818348,0.467,294.6,23.78,0.128,14.5,106.7819,16.64,17.59,23.45,0,110.7,13.23,17.45,256.6
"2009-04-21 00:51:30",818349,0.324,292.8,11.75,0.124,14.5,106.7879,16.65,17.61,23.47,0,110.7,13.23,17.46,254.8
"2009-04-21 00:52:00",818350,0.835,248.1,14.26,0.27,14.36,106.7939,16.67,17.63,23.51,0,110.7,13.23,17.48,210.1
"2009-04-21 00:52:30",818351,1.18,234.5,3.578,0.113,14.42,106.8168,16.73,17.66,23.53,0,110.7,13.23,17.54,196.5
"2009-04-21 00:53:00",818352,0.861,227.2,3.345,0.067,14.45,106.8177,16.73,17.69,23.56,0,110.7,13.22,17.54,189.2
"2009-04-21 00:53:30",818353,1.072,270.1,20.12,0.181,14.46,106.8396,16.78,17.72,23.5,0,110.7,13.22,17.59,232.1
"2009-04-21 00:54:00",818354,0.548,271.6,17.34,0.344,14.49,106.8512,16.81,17.75,23.31,0,110.7,13.22,17.62,233.6
"2009-04-21 00:54:30",818355,1.266,295.2,8.43,0.189,14.46,106.8618,16.84,17.79,23.25,0,110.7,13.22,17.65,257.2
"2009-04-21 00:55:00",818356,1.246,294.4,10.57,0.257,14.54,106.8843,16.9,17.81,23.2,0,110.7,13.22,17.71,256.4
"2009-04-21 00:55:30",818357,1.103,317.2,12.35,0.227,14.64,106.8849,16.9,17.85,23.15,0,110.7,13.22,17.71,279.2
"2009-04-21 00:56:00",818358,0.735,308.2,20.38,0.302,14.73,106.9068,16.96,17.87,22.69,0,110.7,13.22,17.77,270.2
"2009-04-21 00:56:30",818359,0.634,278.7,8.03,0.148,14.62,106.9187,16.99,17.91,22.64,0,110.7,13.22,17.80,240.7
"2009-04-21 00:57:00",818360,0.525,297.8,24.46,0.178,14.65,106.9187,16.99,17.92,22.76,0,110.7,13.22,17.80,259.8
"2009-04-21 00:57:30",818361,0.773,318.4,14.77,0.157,14.69,106.9226,17,17.95,22.66,0,110.7,13.22,17.81,280.4
"2009-04-21 00:58:00",818362,0.602,303,36.11,0.186,14.74,106.9485,17.06,17.97,22.61,0,110.7,13.22,17.87,265.0
"2009-04-21 00:58:30",818363,0.881,269.1,17.54,0.217,14.58,106.9524,17.07,17.99,22.64,0,110.7,13.21,17.88,231.1
"2009-04-21 00:59:00",818364,1.182,306.8,9.96,0.173,14.77,106.9558,17.08,18.03,22.54,0,110.7,13.21,17.89,268.8
"2009-04-21 00:59:30",818365,0.466,300.3,19.33,0.195,14.77,106.9763,17.13,18.03,22.38,0,110.7,13.21,17.95,262.3
"2009-04-21 01:00:00",818366,0.208,261.9,20.46,0.069,14.83,106.985,17.16,18.05,22.29,0,110.8,13.21,17.97,223.9
"2009-04-21 01:00:30",818367,1.029,229.3,6.102,0.489,14.71,106.9862,17.16,18.07,22.27,0,110.8,13.21,17.97,191.3
"2009-04-21 01:01:00",818368,0.993,254.6,18.67,0.145,14.8,106.9862,17.16,18.1,22.3,0,110.7,13.21,17.97,216.6
"2009-04-21 01:01:30",818369,0.991,276.2,16.39,0.205,14.84,106.9921,17.17,18.09,22.24,0,110.8,13.21,17.99,238.2
"2009-04-21 01:02:00",818370,1.025,313.4,8.96,0.341,14.93,107.0146,17.23,18.13,22.13,0,110.8,13.21,18.04,275.4
"2009-04-21 01:02:30",818371,1.141,313.9,11.16,0.142,14.96,107.0199,17.25,18.16,21.8,0,110.8,13.21,18.06,275.9
"2009-04-21 01:03:00",818372,1.727,275.9,4.822,0.388,14.91,107.0199,17.25,18.18,21.88,0,110.8,13.21,18.06,237.9
"2009-04-21 01:03:30",818373,1.006,277.8,16.61,0.16,14.91,107.0362,17.29,18.2,21.98,0,110.8,13.21,18.10,239.8
"2009-04-21 01:04:00",818374,1.191,284.7,12.37,0.302,14.94,107.0469,17.32,18.21,21.98,0,110.8,13.22,18.13,246.7
"2009-04-21 01:04:30",818375,1.274,295.8,10.64,0.278,14.89,107.0531,17.33,18.24,21.93,0,110.8,13.21,18.14,257.8
"2009-04-21 01:05:00",818376,1.103,281,7.705,0.155,15,107.0507,17.33,18.25,21.99,0,110.8,13.22,18.14,243.0
"2009-04-21 01:05:30",818377,1.396,290.6,17.64,0.136,14.94,107.0522,17.33,18.27,21.93,0,110.8,13.22,18.14,252.6
"2009-04-21 01:06:00",818378,1.307,280.3,11.35,0.156,14.91,107.0522,17.33,18.28,21.85,0,110.8,13.22,18.14,242.3
"2009-04-21 01:06:30",818379,1.215,303,30.53,0.26,14.93,107.0576,17.34,18.3,21.93,0,110.8,13.22,18.16,265.0
"2009-04-21 01:07:00",818380,1.733,309.8,13.98,0.246,15.11,107.0695,17.37,18.32,21.65,0,110.8,13.21,18.19,271.8
"2009-04-21 01:07:30",818381,1.214,291.2,11.37,0.464,15.2,107.0663,17.37,18.32,21.41,0,110.8,13.21,18.18,253.2
"2009-04-21 01:08:00",818382,2.001,305.1,6.192,0.174,15,107.0398,17.3,18.32,21.63,0,110.8,13.21,18.11,267.1
"2009-04-21 01:08:30",818383,2.224,321,12.28,0.17,15.06,107.0398,17.3,18.31,21.81,0,110.8,13.21,18.11,283.0
"2009-04-21 01:09:00",818384,2.139,307.4,8.38,0.14,15.14,107.0371,17.29,18.29,21.79,0,110.8,13.21,18.10,269.4
"2009-04-21 01:09:30",818385,2.168,298.6,6.987,0.284,15.17,107.0362,17.29,18.29,21.75,0,110.8,13.21,18.10,260.6
"2009-04-21 01:10:00",818386,2.899,299.2,8.8,0.271,15.35,107.0351,17.29,18.31,21.6,0,110.8,13.21,18.10,261.2
"2009-04-21 01:10:30",818387,2.613,313.1,5.671,0.318,15.28,107.0459,17.31,18.3,21.43,0,110.8,13.21,18.13,275.1
"2009-04-21 01:11:00",818388,2.722,316.7,4.311,0.26,15.34,107.0485,17.32,18.31,21.46,0,110.8,13.21,18.13,278.7
"2009-04-21 01:11:30",818389,3.254,311,4.583,0.189,15.34,107.0565,17.34,18.32,21.45,0,110.8,13.21,18.15,273.0
"2009-04-21 01:12:00",818390,2.557,301.7,7.443,0.293,15.37,107.0534,17.33,18.33,21.47,0,110.8,13.21,18.14,263.7
"2009-04-21 01:12:30",818391,2.567,283.6,5.586,0.331,15.37,107.0582,17.34,18.34,21.54,0,110.8,13.21,18.16,245.6
"2009-04-21 01:13:00",818392,2.219,295.2,12.86,0.218,15.42,107.0528,17.33,18.35,21.52,0,110.8,13.21,18.14,257.2
"2009-04-21 01:13:30",818393,1.846,323.8,11.82,0.257,15.41,107.0362,17.29,18.33,21.48,0,110.8,13.21,18.10,285.8
"2009-04-21 01:14:00",818394,2.618,312.4,3.128,0.217,15.31,107.0341,17.28,18.33,21.57,0,110.8,13.21,18.09,274.4
"2009-04-21 01:14:30",818395,2.649,299,5.908,0.26,15.41,107.0356,17.29,18.33,21.64,0,110.8,13.21,18.10,261.0
"2009-04-21 01:15:00",818396,3.978,315,10.65,1.236,15.56,107.0383,17.29,18.32,21.49,0,110.8,13.21,18.11,277.0
"2009-04-21 01:15:30",818397,4.835,325.6,6.304,0.396,15.63,107.0404,17.3,18.33,21.16,0,110.8,13.21,18.11,287.6
"2009-04-21 01:16:00",818398,3.712,305.8,3.283,0.234,15.43,107.0446,17.31,18.32,21.37,0,110.8,13.21,18.12,267.8
"2009-04-21 01:16:30",818399,3.325,309.2,6.869,0.212,15.43,107.0461,17.31,18.33,21.62,0,110.8,13.21,18.13,271.2
"2009-04-21 01:17:00",818400,3.576,321.7,9.99,0.28,15.59,107.0458,17.31,18.32,21.59,0,110.8,13.21,18.13,283.7
"2009-04-21 01:17:30",818401,3.564,337.2,3.63,0.157,15.67,107.0476,17.32,18.31,21.38,0,110.8,13.21,18.13,299.2
"2009-04-21 01:18:00",818402,3.708,320.5,5.605,0.302,15.44,107.0519,17.33,18.3,21.47,0,110.8,13.21,18.14,282.5
"2009-04-21 01:18:30",818403,3.556,326.6,8.69,0.325,15.57,107.0519,17.33,18.3,21.59,0,110.8,13.21,18.14,288.6
"2009-04-21 01:19:00",818404,3.98,341.5,5.672,0.29,15.75,107.0483,17.32,18.3,21.4,0,110.8,13.21,18.13,303.5
"2009-04-21 01:19:30",818405,3.283,332,5.918,0.441,15.74,107.0433,17.31,18.3,21.16,0,110.8,13.21,18.12,294.0
"2009-04-21 01:20:00",818406,3.28,325.7,4.524,0.277,15.7,107.0413,17.3,18.32,21.17,0,110.8,13.21,18.11,287.7
"2009-04-21 01:20:30",818407,3.725,317.4,4.235,0.289,15.68,107.0362,17.29,18.29,21.27,0,110.8,13.21,18.10,279.4
"2009-04-21 01:21:00",818408,3.676,314.8,6.877,0.484,15.72,107.0261,17.26,18.27,21.29,0,110.8,13.22,18.07,276.8
"2009-04-21 01:21:30",818409,3.653,316.4,5.907,0.43,15.73,107.0202,17.25,18.27,21.38,0,110.8,13.22,18.06,278.4
"2009-04-21 01:22:00",818410,3.126,328.2,10.05,0.326,15.8,107.0199,17.25,18.29,21.28,0,110.8,13.22,18.06,290.2
"2009-04-21 01:22:30",818411,3.365,326.2,10.51,0.455,15.81,107.0199,17.25,18.26,21.32,0,110.8,13.22,18.06,288.2
"2009-04-21 01:23:00",818412,3.005,344.8,9.67,0.733,15.96,107.0191,17.24,18.27,21.36,0,110.8,13.22,18.06,306.8
"2009-04-21 01:23:30",818413,2.366,324.2,5.108,0.365,15.8,107.0112,17.22,18.25,21.44,0,110.8,13.22,18.04,286.2
"2009-04-21 01:24:00",818414,1.594,320.7,12.82,0.366,15.81,106.9921,17.17,18.25,21.52,0,110.8,13.22,17.99,282.7
"2009-04-21 01:24:30",818415,1.114,282.7,9.29,0.217,15.86,106.9862,17.16,18.23,21.57,0,110.8,13.22,17.97,244.7
"2009-04-21 01:25:00",818416,2.61,300.7,7.941,0.366,15.95,106.9862,17.16,18.22,21.57,0,110.8,13.22,17.97,262.7
"2009-04-21 01:25:30",818417,3.203,310.9,9.15,0.391,16,106.9862,17.16,18.21,21.61,0,110.8,13.22,17.97,272.9
"2009-04-21 01:26:00",818418,2.628,311.1,5.98,0.44,15.98,106.9802,17.14,18.19,21.59,0,110.8,13.22,17.96,273.1
"2009-04-21 01:26:30",818419,2.892,306.3,4.979,0.182,16.06,106.962,17.1,18.18,21.61,0,110.8,13.22,17.91,268.3
"2009-04-21 01:27:00",818420,3.166,317,1.919,0.12,15.93,106.9524,17.07,18.16,21.69,0,110.8,13.22,17.88,279.0
"2009-04-21 01:27:30",818421,4.205,322,4.846,0.691,16.21,106.9524,17.07,18.16,21.69,0,110.8,13.22,17.88,284.0
"2009-04-21 01:28:00",818422,4.737,320.8,8.53,0.432,16.43,106.9443,17.05,18.11,20.58,0,110.8,13.22,17.86,282.8
"2009-04-21 01:28:30",818423,4.969,313.1,5.478,0.561,16.26,106.9189,16.99,18.1,20.67,0,110.8,13.22,17.80,275.1
"2009-04-21 01:29:00",818424,5.183,318.7,4.307,0.675,16.12,106.9193,16.99,18.09,21.3,0,110.8,13.22,17.80,280.7
"2009-04-21 01:29:30",818425,5.611,313.1,5.724,0.415,16.45,106.9184,16.99,18.08,20.92,0,110.8,13.22,17.80,275.1
"2009-04-21 01:30:00",818426,5.696,329.3,3.909,0.489,16.39,106.8991,16.94,18.04,20.33,0,110.8,13.23,17.75,291.3
"2009-04-21 01:30:30",818427,4.778,327,8.49,0.472,16.28,106.8939,16.92,18.03,20.37,0,110.7,13.23,17.73,289.0
"2009-04-21 01:31:00",818428,3.352,310.9,8.96,0.34,16.08,106.8949,16.93,18.01,21.12,0,110.7,13.22,17.74,272.9
"2009-04-21 01:31:30",818429,2.863,303.9,12.23,0.577,16.17,106.8875,16.91,17.99,21.31,0,110.7,13.22,17.72,265.9
"2009-04-21 01:32:00",818430,2.837,300.6,9.16,0.777,16.28,106.8764,16.88,17.97,21.34,0,110.7,13.22,17.69,262.6
"2009-04-21 01:32:30",818431,3.03,302.9,6.876,0.337,16.32,106.883,16.9,17.96,21.3,0,110.7,13.22,17.71,264.9
"2009-04-21 01:33:00",818432,2.993,303.3,6.249,0.53,16.2,106.8826,16.89,17.92,21.47,0,110.7,13.22,17.71,265.3
"2009-04-21 01:33:30",818433,2.458,310.8,10.05,0.43,16.15,106.8605,16.84,17.91,21.74,0,110.7,13.22,17.65,272.8
"2009-04-21 01:34:00",818434,3.075,317.3,5.814,0.189,16.07,106.8535,16.82,17.88,21.96,0,110.7,13.22,17.63,279.3
"2009-04-21 01:34:30",818435,3.873,303.6,5.073,0.26,16.12,106.8535,16.82,17.87,22.18,0,110.7,13.22,17.63,265.6
"2009-04-21 01:35:00",818436,2.79,313.3,21.78,1.016,16.32,106.8487,16.81,17.84,21.99,0,110.7,13.23,17.62,275.3
"2009-04-21 01:35:30",818437,1.887,26.3,17.07,0.667,16.34,106.8293,16.76,17.82,21.46,0,110.7,13.23,17.57,348.3
"2009-04-21 01:36:00",818438,1.663,312,28.96,0.634,16.43,106.8197,16.73,17.79,21.31,0,110.7,13.23,17.54,274.0
"2009-04-21 01:36:30",818439,3.166,266,16.41,0.414,16.3,106.8175,16.73,17.77,21.35,0,110.7,13.24,17.54,228.0
"2009-04-21 01:37:00",818440,3.086,305.6,4.277,0.355,16.27,106.8056,16.7,17.76,21.75,0,110.7,13.24,17.51,267.6
"2009-04-21 01:37:30",818441,3.15,296.1,5.95,0.687,16.29,106.7868,16.65,17.73,21.55,0,110.7,13.24,17.46,258.1
"2009-04-21 01:38:00",818442,2.846,281.5,7.518,0.174,16.25,106.786,16.65,17.71,21.94,0,110.7,13.24,17.46,243.5
"2009-04-21 01:38:30",818443,3.84,305.8,7.336,1.082,16.19,106.7812,16.63,17.68,22.17,0,110.7,13.24,17.44,267.8
"2009-04-21 01:39:00",818444,4.816,301.1,12.14,0.803,16.21,106.7637,16.59,17.67,22.47,0,110.7,13.24,17.40,263.1
"2009-04-21 01:39:30",818445,4.669,318.3,4.426,0.646,16.26,106.7522,16.56,17.64,22.4,0,110.7,13.24,17.37,280.3
"2009-04-21 01:40:00",818446,3.458,328.3,35.32,0.694,16.29,106.7522,16.56,17.64,22.33,0,110.7,13.25,17.37,290.3
"2009-04-21 01:40:30",818447,4.006,321.1,9.18,0.573,16.24,106.7528,16.56,17.61,22.37,0,110.7,13.25,17.37,283.1
"2009-04-21 01:41:00",818448,4.188,314.3,10.3,0.492,16.27,106.7514,16.56,17.6,22.33,0,110.6,13.25,17.37,276.3
"2009-04-21 01:41:30",818449,4.249,279.8,11.56,0.381,16.31,106.7314,16.51,17.59,22.47,0,110.6,13.25,17.32,241.8
"2009-04-21 01:42:00",818450,5.46,297.8,8.81,0.745,16.27,106.7313,16.51,17.56,22.61,0,110.6,13.25,17.32,259.8
"2009-04-21 01:42:30",818451,5.382,293.3,12.72,0.644,16.28,106.7347,16.52,17.53,22.48,0,110.6,13.25,17.32,255.3
"2009-04-21 01:43:00",818452,5.491,306,9.99,0.479,16.18,106.7272,16.5,17.52,22.57,0,110.6,13.25,17.31,268.0
"2009-04-21 01:43:30",818453,5.03,308.2,9.96,0.6,16.24,106.7147,16.46,17.51,22.55,0,110.6,13.25,17.27,270.2
"2009-04-21 01:44:00",818454,6.004,329,8.27,0.841,16.25,106.7159,16.47,17.48,22.67,0,110.6,13.25,17.28,291.0
"2009-04-21 01:44:30",818455,5.44,325.4,10.28,0.897,16.21,106.7198,16.48,17.46,22.54,0,110.6,13.25,17.29,287.4
"2009-04-21 01:45:00",818456,3.558,317,9.7,0.672,16.09,106.7204,16.48,17.45,22.76,0,110.6,13.25,17.29,279.0
"2009-04-21 01:45:30",818457,2.651,299.2,24.48,0.41,16.12,106.7168,16.47,17.45,23.15,0,110.6,13.25,17.28,261.2
"2009-04-21 01:46:00",818458,1.99,282.7,19.03,0.37,16.15,106.6942,16.41,17.43,23.28,0,110.6,13.25,17.22,244.7
"2009-04-21 01:46:30",818459,1.848,295,23.4,0.459,16.11,106.6869,16.39,17.41,23.27,0,110.6,13.25,17.20,257.0
"2009-04-21 01:47:00",818460,3.715,314.3,15.37,1.152,16.1,106.6869,16.39,17.4,23.34,0,110.6,13.25,17.20,276.3
"2009-04-21 01:47:30",818461,5.706,328.3,4.338,0.346,16.02,106.6869,16.39,17.38,23.77,0,110.6,13.26,17.20,290.3